Home > Weather > Wichita Falls > Past weeks

Flag for USA Past Weather in Wichita Falls, Texas, USA — Yesterday and Last 2 Weeks

Now
79 °F

Sunny.


Feels Like: 81 °F
Forecast: 72 / 90 °F
Wind: 8 mph from South

Location: Wichita Falls - Sheppard Air Force Base

Current Time: Aug 28, 2016 at 9:21:44 PM

Latest Report: Aug 28, 2016 at 8:52 PM


Visibility: 10 mi

Pressure: 29.98 "Hg

Humidity: 65%

Dew Point: 66 °F

Location of Wichita FallsLocation

Past Weather in Wichita Falls — Graph

°F

Wichita Falls Temperature Yesterday

Maximum temperature yesterday: 94 °F (at 2:52 PM)
Minimum temperature yesterday: 69 °F (at 5:52 AM)
Average temperature yesterday: 79 °F

High & Low Weather Summary for the Past Weeks

 TemperatureHumidityPressure
High98 °F (Aug 25, 2:52 PM)97% (Aug 19, 3:52 AM)30.12 "Hg (Aug 19, 3:52 AM)
Low61 °F (Aug 22, 6:52 AM)22% (Aug 21, 4:52 PM)29.79 "Hg (Aug 20, 12:52 AM)
Average79 °F67%29.97 "Hg
* Reported Aug 13 7:52 PM — Aug 28 7:52 PM, Wichita Falls, Weather by CustomWeather, © 2016

Note: Actual official high and low records may vary slightly from our data, if they occured in-between our weather recording intervals... More about our weather records

Advertising

Wichita Falls Weather History for the Previous 24 Hours

Scroll right to see more
 ConditionsComfort  
Time TempWeatherWind HumidityBarometerVisibility
7:52 PM
Sun, Aug 28
85 °FSunny.10 mph53%29.96 "Hg10 mi
6:52 PM89 °FSunny.12 mph43%29.93 "Hg10 mi
5:52 PM91 °FSunny.13 mph42%29.92 "Hg10 mi
4:52 PM93 °FPassing clouds.13 mph40%29.93 "Hg10 mi
3:52 PM92 °FPassing clouds.12 mph43%29.94 "Hg10 mi
2:52 PM90 °FScattered clouds.17 mph47%29.99 "Hg10 mi
1:52 PM91 °FScattered clouds.9 mph45%30.01 "Hg10 mi
12:52 PM90 °FBroken clouds.8 mph48%30.02 "Hg10 mi
11:52 AM86 °FPassing clouds.8 mph57%30.03 "Hg10 mi
10:52 AM84 °FSunny.7 mph65%30.04 "Hg10 mi
9:52 AM80 °FSunny.7 mph74%30.06 "Hg10 mi
8:52 AM75 °FSunny.9 mph88%30.05 "Hg10 mi
7:52 AM71 °FClear.3 mph93%30.04 "Hg10 mi
6:52 AM70 °FClear.5 mph93%30.03 "Hg10 mi
5:52 AM71 °FClear.No wind93%30.01 "Hg10 mi
4:52 AM70 °FClear.7 mph93%29.98 "Hg10 mi
3:52 AM73 °FPassing clouds.No wind88%29.98 "Hg10 mi
2:52 AM73 °FClear.5 mph88%29.98 "Hg10 mi
1:52 AM73 °FClear.3 mph90%29.99 "Hg10 mi
12:52 AM74 °FClear.6 mph88%29.99 "Hg10 mi
11:52 PM
Sat, Aug 27
73 °FClear.6 mph88%30.00 "Hg10 mi
10:52 PM74 °FClear.5 mph85%29.98 "Hg10 mi
9:52 PM73 °FClear.No wind88%29.96 "Hg10 mi
Weather by CustomWeather, © 2016

See weather overviewHow to use our weather pages